Location: Treviso
(45.6669°N, 12.2430°E)
Time: 00:37:53
(UTC+02:00)

ISS - Pass Details

Date: 26 May 2017
Orbit: 402 x 408 km, 51.6° (Epoch: 30 May)

Event Time Altitude Azimuth Distance (km) Brightness Sun altitude
Rises 03:25:46 0° 297° (WNW) 2,331 0.0 -16.2°
Reaches altitude 10° 03:27:52 10° 295° (WNW) 1,467 -1.1 -16.0°
Maximum altitude 03:31:08 69° 212° (SSW) 437 -4.0 -15.7°
Drops below altitude 10° 03:34:23 10° 129° (SE) 1,455 -1.1 -15.4°
Sets 03:36:27 0° 126° (SE) 2,310 0.0 -15.2°
